GW0484 Weather Reports


Display with metric or nautical units.
time (UTC)temp
F
wind
direction
speed
MPH
gust
MPH
rain 1hr
in
rain 24hr
in
rain mn
in
humidity
%
barometer
mb
20260507044745 60 133 0.0 0.0 0.00 0.00 0.00 42 1002.8
20260507044242 61 140 1.0 1.0 0.00 0.00 0.00 41 1003.1
20260507043738 62 141 1.0 2.0 0.00 0.00 0.00 41 1002.9
20260507043235 62 137 0.0 0.0 0.00 0.00 0.00 40 1002.8
20260507042731 62 137 1.0 1.0 0.00 0.00 0.00 41 1002.9
20260507042226 63 165 5.0 6.0 0.00 0.00 0.00 41 1002.7
20260507041724 63 147 3.0 5.0 0.00 0.00 0.00 40 1003.0
20260507041220 64 152 3.0 3.0 0.00 0.00 0.00 40 1003.1
20260507040717 64 166 3.0 3.0 0.00 0.00 0.00 39 1002.9
20260507040213 64 153 5.0 6.0 0.00 0.00 0.00 39 1002.8
20260507035709 64 143 3.0 5.0 0.00 0.00 0.00 39 1003.0
20260507035205 64 146 5.0 6.0 0.00 0.00 0.00 40 1003.1
20260507034702 63 139 6.0 7.0 0.00 0.00 0.00 39 1003.0
20260507034200 64 134 8.0 8.0 0.00 0.00 0.00 39 1003.2
20260507033658 65 162 2.0 2.0 0.00 0.00 0.00 39 1003.7
20260507033155 66 207 3.0 3.0 0.00 0.00 0.00 38 1003.6
20260507032652 65 199 5.0 5.0 0.00 0.00 0.00 39 1003.6
20260507032148 64 279 3.0 6.0 0.00 0.00 0.00 39 1003.9
20260507031645 62 348 4.0 7.0 0.00 0.00 0.00 40 1003.9
20260507031141 63 107 0.0 0.0 0.00 0.00 0.00 37 1003.7
20260507030638 63 108 0.0 0.0 0.00 0.00 0.00 36 1003.1
20260507030136 63 111 0.0 0.0 0.00 0.00 0.00 36 1002.9
20260507025633 63 125 0.0 0.0 0.00 0.00 0.00 36 1003.0
20260507025130 64 124 1.0 1.0 0.00 0.00 0.00 35 1003.1
20260507024628 65 115 3.0 3.0 0.00 0.00 0.00 34 1002.7
20260507024125 66 114 5.0 6.0 0.00 0.00 0.00 34 1002.9
20260507023620 66 101 2.0 2.0 0.00 0.00 0.00 33 1002.7
20260507023118 66 90 0.0 2.0 0.00 0.00 0.00 34 1002.8
20260507022615 67 69 2.0 2.0 0.00 0.00 0.00 34 1002.4
20260507022110 67 88 3.0 3.0 0.00 0.00 0.00 33 1002.5
20260507021607 68 54 4.0 6.0 0.00 0.00 0.00 32 1002.5
20260507021103 68 53 4.0 5.0 0.00 0.00 0.00 32 1002.4
20260507020602 68 40 3.0 5.0 0.00 0.00 0.00 32 1002.4
20260507020057 69 30 4.0 5.0 0.00 0.00 0.00 32 1002.4
20260507015556 69 32 3.0 3.0 0.00 0.00 0.00 31 1002.4
20260507015053 70 62 2.0 2.0 0.00 0.00 0.00 31 1002.5
20260507014549 70 32 5.0 6.0 0.00 0.00 0.00 30 1002.5
20260507014045 70 20 3.0 3.0 0.00 0.00 0.00 30 1002.3
20260507013542 70 66 3.0 3.0 0.00 0.00 0.00 31 1002.5
20260507013039 70 43 4.0 5.0 0.00 0.00 0.00 30 1002.7
20260507012536 70 59 2.0 3.0 0.00 0.00 0.00 30 1002.7
20260507012032 70 111 0.0 0.0 0.00 0.00 0.00 30 1002.7
20260507011530 71 130 0.0 1.0 0.00 0.00 0.00 30 1002.8
20260507011026 71 323 2.0 3.0 0.00 0.00 0.00 30 1002.9
20260507010520 71 91 2.0 2.0 0.00 0.00 0.00 30 1002.9
20260507010017 71 16 4.0 6.0 0.00 0.00 0.00 30 1002.4
20260507005515 73 120 0.0 0.0 0.00 0.00 0.00 29 1002.5
20260507005011 74 69 2.0 3.0 0.00 0.00 0.00 29 1002.8
20260507004508 74 15 5.0 8.0 0.00 0.00 0.00 28 1003.0
20260507004006 73 41 1.0 2.0 0.00 0.00 0.00 29 1003.1
20260507003501 72 115 0.0 0.0 0.00 0.00 0.00 29 1002.8
20260507002955 72 105 4.0 5.0 0.00 0.00 0.00 29 1002.9
20260507002453 72 124 0.0 0.0 0.00 0.00 0.00 29 1002.9
20260507001949 71 96 1.0 2.0 0.00 0.00 0.00 30 1003.1
20260507001446 71 86 0.0 1.0 0.00 0.00 0.00 29 1002.9
20260507000944 71 92 1.0 2.0 0.00 0.00 0.00 29 1002.9
20260507000439 71 98 0.0 1.0 0.00 0.00 0.00 30 1002.9
20260506235934 72 94 1.0 2.0 0.00 0.00 0.00 28 1003.0
20260506235432 71 36 4.0 5.0 0.00 0.00 0.00 29 1003.0
20260506234927 72 129 1.0 2.0 0.00 0.00 0.00 30 1003.0
20260506234426 72 153 1.0 2.0 0.00 0.00 0.00 29 1003.2
20260506233923 72 103 1.0 2.0 0.00 0.00 0.00 29 1002.9
20260506233419 70 65 1.0 2.0 0.00 0.00 0.00 29 1003.3
20260506232916 71 94 1.0 2.0 0.00 0.00 0.00 30 1003.1
20260506232412 71 106 3.0 3.0 0.00 0.00 0.00 29 1003.2
20260506231908 71 110 1.0 1.0 0.00 0.00 0.00 29 1003.3
20260506231406 71 347 1.0 2.0 0.00 0.00 0.00 30 1003.4
20260506230903 71 154 0.0 0.0 0.00 0.00 0.00 29 1003.5
20260506230400 70 158 1.0 2.0 0.00 0.00 0.00 30 1003.6
20260506225856 70 172 4.0 5.0 0.00 0.00 0.00 29 1003.6
20260506225353 71 152 0.0 0.0 0.00 0.00 0.00 29 1003.7
20260506224850 70 169 2.0 2.0 0.00 0.00 0.00 30 1003.7
20260506224348 71 229 6.0 7.0 0.00 0.00 0.00 30 1003.7
20260506223844 71 15 4.0 5.0 0.00 0.00 0.00 29 1003.6
20260506223339 69 121 0.0 0.0 0.00 0.00 0.00 30 1004.1
20260506222836 69 111 3.0 3.0 0.00 0.00 0.00 30 1004.0
20260506222331 72 320 3.0 5.0 0.00 0.00 0.00 29 1004.1
20260506221824 71 280 4.0 5.0 0.00 0.00 0.00 30 1004.4
20260506221321 70 120 1.0 2.0 0.00 0.00 0.00 30 1004.3
20260506220819 72 16 2.0 7.0 0.00 0.00 0.00 30 1004.5
20260506220314 72 68 1.0 1.0 0.00 0.00 0.00 29 1004.5
20260506215810 71 56 4.0 6.0 0.00 0.00 0.00 29 1004.7
20260506215306 71 111 1.0 1.0 0.00 0.00 0.00 30 1004.6
20260506214803 70 186 1.0 2.0 0.00 0.00 0.00 30 1004.6
20260506214259 69 330 7.0 8.0 0.00 0.00 0.00 32 1004.9
20260506213758 68 335 5.0 6.0 0.00 0.00 0.00 31 1004.9
20260506213254 68 257 4.0 5.0 0.00 0.00 0.00 32 1004.9
20260506212752 69 259 6.0 8.0 0.00 0.00 0.00 31 1005.1
20260506212247 68 315 9.0 10.0 0.00 0.00 0.00 31 1005.2
20260506211743 68 278 3.0 5.0 0.00 0.00 0.00 32 1005.3
20260506211239 68 328 9.0 10.0 0.00 0.00 0.00 31 1005.4
20260506210736 68 1 4.0 5.0 0.00 0.00 0.00 32 1005.4
20260506210233 69 288 11.0 14.0 0.00 0.00 0.00 31 1005.6
20260506205730 68 163 4.0 7.0 0.00 0.00 0.00 33 1005.5
20260506205226 68 293 7.0 9.0 0.00 0.00 0.00 32 1005.6
20260506204723 67 327 2.0 5.0 0.00 0.00 0.00 34 1005.7
20260506204220 66 165 1.0 2.0 0.00 0.00 0.00 33 1005.6
20260506203719 66 172 4.0 5.0 0.00 0.00 0.00 34 1005.8
20260506203215 65 266 8.0 9.0 0.00 0.00 0.00 34 1006.0
20260506202713 64 304 3.0 6.0 0.00 0.00 0.00 35 1005.9
20260506202209 64 193 4.0 5.0 0.00 0.00 0.00 35 1006.1
20260506201706 65 297 10.0 11.0 0.00 0.00 0.00 35 1006.0
20260506201203 64 232 15.0 17.0 0.00 0.00 0.00 35 1006.4
20260506200659 63 165 1.0 1.0 0.00 0.00 0.00 35 1006.4
20260506200156 63 171 1.0 2.0 0.00 0.00 0.00 35 1006.1
20260506195653 64 206 8.0 9.0 0.00 0.00 0.00 35 1006.5
20260506195149 64 189 0.0 1.0 0.00 0.00 0.00 36 1006.6
20260506194647 62 271 6.0 7.0 0.00 0.00 0.00 35 1006.7
20260506194143 63 299 11.0 14.0 0.00 0.00 0.00 35 1006.9
20260506193641 62 221 3.0 3.0 0.00 0.00 0.00 37 1006.8
20260506193138 61 201 5.0 6.0 0.00 0.00 0.00 37 1007.1
20260506192634 62 285 12.0 13.0 0.00 0.00 0.00 36 1007.1
20260506192130 61 197 8.0 9.0 0.00 0.00 0.00 37 1007.0
20260506191627 61 166 4.0 5.0 0.00 0.00 0.00 36 1007.1
20260506191123 61 249 5.0 6.0 0.00 0.00 0.00 37 1007.2
20260506190621 60 197 6.0 7.0 0.00 0.00 0.00 35 1007.3
20260506190118 60 179 9.0 10.0 0.00 0.00 0.00 35 1007.6
20260506185615 60 271 4.0 5.0 0.00 0.00 0.00 35 1007.8
20260506185111 60 196 6.0 7.0 0.00 0.00 0.00 34 1007.7
20260506184609 59 263 7.0 9.0 0.00 0.00 0.00 34 1008.0
20260506184106 60 215 7.0 8.0 0.00 0.00 0.00 34 1008.0
20260506183602 60 225 7.0 8.0 0.00 0.00 0.00 34 1008.1
20260506183058 58 207 4.0 6.0 0.00 0.00 0.00 35 1008.1
20260506182556 59 254 7.0 9.0 0.00 0.00 0.00 35 1008.2
20260506182053 58 232 8.0 10.0 0.00 0.00 0.00 34 1008.6
20260506181551 58 181 9.0 9.0 0.00 0.00 0.00 33 1008.6
20260506181047 57 194 6.0 7.0 0.00 0.00 0.00 33 1008.6
20260506180544 57 203 6.0 6.0 0.00 0.00 0.00 34 1008.8
20260506180040 57 165 9.0 9.0 0.00 0.00 0.00 33 1008.9
20260506175537 57 203 5.0 6.0 0.00 0.00 0.00 33 1008.8
20260506175033 56 209 3.0 5.0 0.00 0.00 0.00 33 1009.0
20260506174532 55 176 9.0 9.0 0.00 0.00 0.00 34 1009.1
20260506174028 55 169 3.0 3.0 0.00 0.00 0.00 36 1009.0
20260506173526 55 199 7.0 7.0 0.00 0.00 0.00 39 1009.3
20260506173022 55 193 5.0 6.0 0.00 0.00 0.00 35 1009.4
20260506172520 55 213 7.0 8.0 0.00 0.00 0.00 39 1009.3
20260506172016 55 186 7.0 8.0 0.00 0.00 0.00 38 1009.4
20260506171513 54 184 4.0 5.0 0.00 0.00 0.00 42 1009.6
20260506171011 54 214 6.0 8.0 0.00 0.00 0.00 41 1009.8
20260506170508 53 130 9.0 9.0 0.00 0.00 0.00 45 1009.9
20260506170000 53 117 3.0 3.0 0.00 0.00 0.00 45 1010.2
20260506165458 52 162 3.0 3.0 0.00 0.00 0.00 45 1010.1
20260506164954 52 130 0.0 1.0 0.00 0.00 0.00 46 1010.3
20260506164450 52 180 7.0 7.0 0.00 0.00 0.00 46 1010.4
20260506163948 51 139 4.0 5.0 0.00 0.00 0.00 50 1010.2
20260506163443 50 176 6.0 7.0 0.00 0.00 0.00 51 1010.2
20260506162938 51 165 3.0 5.0 0.00 0.00 0.00 53 1010.5
20260506162436 50 188 5.0 6.0 0.00 0.00 0.00 54 1010.5
20260506161928 49 178 3.0 5.0 0.00 0.00 0.00 54 1010.6
20260506161426 49 178 5.0 6.0 0.00 0.00 0.00 56 1010.7
20260506160923 48 150 3.0 3.0 0.00 0.00 0.00 55 1010.8
20260506160420 48 142 5.0 6.0 0.00 0.00 0.00 58 1010.8
20260506155917 47 132 1.0 2.0 0.00 0.00 0.00 59 1011.2
20260506155414 45 162 4.0 5.0 0.00 0.00 0.00 60 1011.0
20260506153536 44 142 1.0 1.0 0.00 0.00 0.00 63 1011.5
20260506153034 43 151 5.0 6.0 0.00 0.00 0.00 63 1011.7
20260506152531 42 117 3.0 3.0 0.00 0.00 0.00 64 1011.7
20260506152029 41 174 3.0 6.0 0.00 0.00 0.00 66 1011.6
20260506151526 40 109 3.0 3.0 0.00 0.00 0.00 66 1011.7
20260506151023 40 128 6.0 8.0 0.00 0.00 0.00 66 1011.9
20260506150520 40 109 5.0 5.0 0.00 0.00 0.00 67 1011.7
20260506150017 40 122 3.0 5.0 0.00 0.00 0.00 68 1012.2
20260506145513 40 166 4.0 6.0 0.00 0.00 0.00 69 1012.2
20260506145011 40 125 4.0 5.0 0.00 0.00 0.00 70 1012.4
20260506144507 40 176 2.0 3.0 0.00 0.00 0.00 70 1012.3
20260506144005 39 200 3.0 3.0 0.00 0.00 0.00 71 1012.2
20260506143502 37 131 3.0 3.0 0.00 0.00 0.00 70 1012.3
20260506143001 37 154 3.0 3.0 0.00 0.00 0.00 71 1012.5
20260506142458 36 148 1.0 2.0 0.00 0.00 0.00 72 1012.3
20260506141956 35 218 4.0 5.0 0.00 0.00 0.00 72 1012.7
20260506141453 35 131 2.0 2.0 0.00 0.00 0.00 70 1012.6
20260506140952 34 141 3.0 3.0 0.00 0.00 0.00 70 1012.7
20260506140448 34 118 3.0 3.0 0.00 0.00 0.00 70 1012.7
20260506135945 34 118 2.0 2.0 0.00 0.00 0.00 68 1012.7
20260506135443 33 113 0.0 0.0 0.00 0.00 0.00 66 1012.7
20260506134938 33 106 0.0 0.0 0.00 0.00 0.00 64 1012.8
20260506134435 32 110 0.0 0.0 0.00 0.00 0.00 64 1012.9
20260506133932 30 111 0.0 0.0 0.00 0.00 0.00 65 1012.8
20260506133429 30 109 0.0 0.0 0.00 0.00 0.00 65 1012.6
20260506132926 28 108 0.0 0.0 0.00 0.00 0.00 66 1012.8
20260506132422 26 109 0.0 0.0 0.00 0.00 0.00 68 1012.8
20260506131920 26 111 0.0 0.0 0.00 0.00 0.00 68 1012.8
20260506131416 25 110 0.0 0.0 0.00 0.00 0.00 69 1012.6
20260506130914 24 94 1.0 1.0 0.00 0.00 0.00 71 1012.7
20260506130410 23 109 0.0 0.0 0.00 0.00 0.00 74 1013.1
20260506125908 21 95 1.0 1.0 0.00 0.00 0.00 76 1013.1
20260506125406 21 69 1.0 2.0 0.00 0.00 0.00 76 1012.9
20260506124904 21 99 1.0 1.0 0.00 0.00 0.00 76 1013.1
20260506124401 21 95 0.0 0.0 0.00 0.00 0.00 76 1013.1
20260506123859 20 113 0.0 0.0 0.00 0.00 0.00 78 1013.1
20260506123357 19 78 2.0 2.0 0.00 0.00 0.00 80 1013.1
20260506122854 18 150 2.0 2.0 0.00 0.00 0.00 79 1013.0
20260506122350 19 98 1.0 1.0 0.00 0.00 0.00 77 1013.0
20260506121849 18 110 0.0 0.0 0.00 0.00 0.00 77 1013.4
20260506121346 18 111 0.0 0.0 0.00 0.00 0.00 78 1013.1
20260506120842 17 112 0.0 0.0 0.00 0.00 0.00 79 1013.1
20260506120340 17 112 0.0 0.0 0.00 0.00 0.00 79 1013.0
20260506115837 18 111 0.0 0.0 0.00 0.00 0.00 79 1013.4
20260506115336 18 95 0.0 1.0 0.00 0.00 0.00 79 1013.1
20260506114833 17 102 0.0 0.0 0.00 0.00 0.00 80 1013.2
20260506114331 17 106 0.0 0.0 0.00 0.00 0.00 79 1013.2
20260506113829 17 83 2.0 2.0 0.00 0.00 0.00 80 1013.2
20260506113326 17 98 0.0 0.0 0.00 0.00 0.00 80 1013.4
20260506112823 17 107 0.0 0.0 0.00 0.00 0.00 80 1013.6
20260506112320 17 105 0.0 1.0 0.00 0.00 0.00 80 1013.6
20260506111817 17 109 0.0 0.0 0.00 0.00 0.00 80 1013.6
20260506111315 17 110 0.0 0.0 0.00 0.00 0.00 80 1013.7
20260506110813 17 110 0.0 0.0 0.00 0.00 0.00 80 1013.7
20260506110309 17 110 0.0 0.0 0.00 0.00 0.00 79 1013.9
20260506105806 17 108 0.0 0.0 0.00 0.00 0.00 79 1013.8
20260506105305 17 114 0.0 0.0 0.00 0.00 0.00 79 1013.9
20260506104801 17 114 0.0 0.0 0.00 0.00 0.00 78 1014.1
20260506104258 18 111 0.0 0.0 0.00 0.00 0.00 78 1014.0
20260506103755 18 66 1.0 2.0 0.00 0.00 0.00 77 1013.9
20260506103253 18 109 0.0 1.0 0.00 0.00 0.00 78 1013.8
20260506102750 18 104 0.0 0.0 0.00 0.00 0.00 77 1013.9
20260506102248 19 89 1.0 2.0 0.00 0.00 0.00 77 1013.9
20260506101745 20 72 0.0 1.0 0.00 0.00 0.00 76 1014.0
20260506101241 19 48 3.0 3.0 0.00 0.00 0.00 77 1014.0
20260506100739 19 79 0.0 0.0 0.00 0.00 0.00 77 1014.2
20260506100237 19 73 2.0 2.0 0.00 0.00 0.00 78 1014.2
20260506095736 19 103 0.0 0.0 0.00 0.00 0.00 77 1014.3
20260506095232 19 107 0.0 0.0 0.00 0.00 0.00 77 1014.3
20260506094729 18 75 1.0 1.0 0.00 0.00 0.00 77 1014.5
20260506094227 18 111 0.0 0.0 0.00 0.00 0.00 77 1014.5
20260506093726 18 108 0.0 0.0 0.00 0.00 0.00 77 1014.5
20260506093222 18 109 0.0 0.0 0.00 0.00 0.00 77 1014.3
20260506092720 19 109 0.0 0.0 0.00 0.00 0.00 76 1014.3
20260506092217 19 107 0.0 0.0 0.00 0.00 0.00 76 1014.7
20260506091715 19 106 0.0 0.0 0.00 0.00 0.00 75 1014.7
20260506091212 20 102 0.0 0.0 0.00 0.00 0.00 75 1014.8
20260506090710 20 88 0.0 0.0 0.00 0.00 0.00 74 1014.6
20260506090206 20 87 0.0 0.0 0.00 0.00 0.00 74 1014.7
20260506085703 20 77 0.0 0.0 0.00 0.00 0.00 74 1014.6
20260506085159 21 40 3.0 3.0 0.00 0.00 0.00 73 1014.6
20260506084656 21 83 2.0 2.0 0.00 0.00 0.00 73 1014.6
20260506084153 21 108 0.0 0.0 0.00 0.00 0.00 73 1014.7
20260506083649 21 110 0.0 0.0 0.00 0.00 0.00 72 1014.7
20260506083148 21 90 1.0 2.0 0.00 0.00 0.00 72 1014.8
20260506082644 20 104 0.0 0.0 0.00 0.00 0.00 73 1015.0
20260506082139 20 96 0.0 1.0 0.00 0.00 0.00 72 1015.2
20260506081638 20 56 2.0 2.0 0.00 0.00 0.00 72 1015.1
20260506081135 20 91 2.0 2.0 0.00 0.00 0.00 72 1015.0
20260506080633 21 86 0.0 0.0 0.00 0.00 0.00 71 1015.1
20260506080129 21 101 0.0 0.0 0.00 0.00 0.00 71 1015.1
20260506073113 21 121 0.0 0.0 0.00 0.00 0.00 70 1015.2
20260506072609 21 133 0.0 0.0 0.00 0.00 0.00 69 1015.3
20260506072108 22 120 1.0 1.0 0.00 0.00 0.00 69 1015.2
20260506071605 22 121 0.0 0.0 0.00 0.00 0.00 68 1015.2
20260506071103 23 110 0.0 1.0 0.00 0.00 0.00 67 1015.3
20260506070559 23 134 0.0 1.0 0.00 0.00 0.00 67 1015.4
20260506062034 23 114 0.0 0.0 0.00 0.00 0.00 65 1015.5
20260506061529 23 117 0.0 0.0 0.00 0.00 0.00 65 1015.3
20260506061027 24 119 0.0 0.0 0.00 0.00 0.00 63 1015.2
20260506060525 24 106 0.0 1.0 0.00 0.00 0.00 63 1015.2
20260506050954 28 105 0.0 0.0 0.00 0.00 0.00 59 1015.7
20260506050452 28 103 0.0 0.0 0.00 0.00 0.00 59 1015.3